Location: ????? ???????
(25.7275°N, 32.5929°E)
Time: 10:39:28
(UTC+00:00)

Hubble Space Telescope - Pass Details

Date: 02 March 2021
Orbit: 535 x 539 km, 28.5° (Epoch: 15 April)

Event Time Altitude Azimuth Distance (km) Brightness Sun altitude
Rises 17:40:04 0° 242° (WSW) 2,661 5.2 -25.1°
Reaches altitude 10° 17:42:22 10° 238° (WSW) 1,773 4.1 -25.6°
Enters shadow 17:44:53 34° 219° (SW) 894 2.1 -26.2°
